Location: Newark
(45.2500°N, 7.5833°E)
Time: 20:29:15
(UTC+00:00)

A-11 Canister half - Pass Details

Date: 28 January 2020
Orbit: 1524 x 1684 km, 47.3° (Epoch: 22 February)

Event Time Altitude Azimuth Distance (km) Brightness Sun altitude
Rises 23:27:33 0° 292° (WNW) 4,769 11.8 -62.7°
Enters shadow 23:28:05 - 291° (WNW) 4,617 11.7 -62.7°
Reaches altitude 10° 23:31:05 10° 283° (WNW) 3,805 - -62.8°
Maximum altitude 23:38:59 30° 227° (SW) 2,625 - -62.9°
Drops below altitude 10° 23:47:06 10° 172° (S) 3,894 - -62.9°
Sets 23:50:48 0° 162° (SSE) 4,896 - -62.8°
